Time,TemperatureF,DewpointF,PressureIn,WindDirection,WindDirectionDegrees,WindSpeedMPH,WindSpeedGustMPH,Humidity,HourlyPrecipIn,Conditions,Clouds,dailyrainin,SoftwareType,DateUTC
2013-02-17 00:11:00,30.7,25.9,29.93,NNW,344,0.0,1.0,82,0.00,,,0.00,Wunderground v.1.15,2013-02-17 05:11:00,
2013-02-17 00:14:00,30.7,26.1,29.94,NNW,344,0.0,1.0,83,0.00,,,0.00,Wunderground v.1.15,2013-02-17 05:14:00,
2013-02-17 00:15:00,30.6,25.8,29.94,NNW,345,0.0,1.0,82,0.00,,,0.00,Wunderground v.1.15,2013-02-17 05:15:00,
2013-02-17 00:17:00,30.6,26.1,29.94,NNW,344,0.0,1.0,83,0.00,,,0.00,Wunderground v.1.15,2013-02-17 05:17:00,
2013-02-17 00:22:00,30.5,26.0,29.94,NNE,15,0.0,1.0,83,0.00,,,0.00,Wunderground v.1.15,2013-02-17 05:22:00,
2013-02-17 00:27:00,30.5,26.2,29.94,NNE,16,0.0,1.0,84,0.00,,,0.00,Wunderground v.1.15,2013-02-17 05:27:00,
2013-02-17 00:34:00,30.3,26.0,29.94,NNE,15,0.0,1.0,84,0.00,,,0.00,Wunderground v.1.15,2013-02-17 05:34:00,
2013-02-17 01:00:00,30.1,25.8,29.95,NNE,17,0.0,1.0,84,0.00,,,0.00,Wunderground v.1.15,2013-02-17 06:00:00,
2013-02-17 01:06:00,30.1,26.1,29.95,NNE,33,0.0,1.0,85,0.00,,,0.00,Wunderground v.1.15,2013-02-17 06:06:00,
2013-02-17 01:11:00,30.0,26.0,29.95,NNE,33,0.0,1.0,85,0.00,,,0.00,Wunderground v.1.15,2013-02-17 06:11:00,
2013-02-17 01:16:00,29.8,25.6,29.95,NNE,33,0.0,1.0,84,0.00,,,0.00,Wunderground v.1.15,2013-02-17 06:16:00,
2013-02-17 01:22:00,29.7,25.5,29.95,NNE,33,0.0,1.0,84,0.00,,,0.00,Wunderground v.1.15,2013-02-17 06:22:00,
2013-02-17 01:27:00,29.6,25.6,29.96,NNE,33,0.0,1.0,85,0.00,,,0.00,Wunderground v.1.15,2013-02-17 06:27:00,
2013-02-17 01:39:00,29.5,24.7,29.96,East,82,0.0,2.0,82,0.00,,,0.00,Wunderground v.1.15,2013-02-17 06:39:00,
2013-02-17 01:44:00,29.4,24.3,29.96,ENE,77,0.0,1.0,81,0.00,,,0.00,Wunderground v.1.15,2013-02-17 06:44:00,
2013-02-17 01:50:00,29.4,24.3,29.96,ENE,77,0.0,1.0,81,0.00,,,0.00,Wunderground v.1.15,2013-02-17 06:50:00,
2013-02-17 01:55:00,29.4,24.0,29.96,ENE,78,0.0,1.0,80,0.00,,,0.00,Wunderground v.1.15,2013-02-17 06:55:00,
2013-02-17 02:00:00,29.3,23.6,29.96,ENE,77,0.0,1.0,79,0.00,,,0.00,Wunderground v.1.15,2013-02-17 07:00:00,
2013-02-17 02:06:00,29.3,23.3,29.96,East,83,0.0,1.0,78,0.00,,,0.00,Wunderground v.1.15,2013-02-17 07:06:00,
2013-02-17 02:11:00,29.2,23.8,29.96,North,359,0.0,1.0,80,0.00,,,0.00,Wunderground v.1.15,2013-02-17 07:11:00,
2013-02-17 02:16:00,29.1,23.1,29.97,North,359,0.0,1.0,78,0.00,,,0.00,Wunderground v.1.15,2013-02-17 07:16:00,
2013-02-17 02:22:00,29.0,23.3,29.97,North,359,0.0,1.0,79,0.00,,,0.00,Wunderground v.1.15,2013-02-17 07:22:00,
2013-02-17 02:27:00,28.8,23.4,29.97,North,358,0.0,1.0,80,0.00,,,0.00,Wunderground v.1.15,2013-02-17 07:27:00,
2013-02-17 02:34:00,28.6,23.5,29.97,North,358,0.0,1.0,81,0.00,,,0.00,Wunderground v.1.15,2013-02-17 07:34:00,
2013-02-17 02:46:00,28.2,23.4,29.97,North,359,0.0,1.0,82,0.00,,,0.00,Wunderground v.1.15,2013-02-17 07:46:00,
2013-02-17 02:52:00,28.0,23.2,29.97,North,358,0.0,1.0,82,0.00,,,0.00,Wunderground v.1.15,2013-02-17 07:52:00,
2013-02-17 02:58:00,27.9,23.1,29.97,North,358,0.0,1.0,82,0.00,,,0.00,Wunderground v.1.15,2013-02-17 07:58:00,
2013-02-17 03:03:00,27.8,23.3,29.97,North,359,0.0,1.0,83,0.00,,,0.00,Wunderground v.1.15,2013-02-17 08:03:00,
2013-02-17 03:09:00,27.6,23.1,29.97,North,358,0.0,1.0,83,0.00,,,0.00,Wunderground v.1.15,2013-02-17 08:09:00,
2013-02-17 03:15:00,27.5,23.0,29.97,North,359,0.0,1.0,83,0.00,,,0.00,Wunderground v.1.15,2013-02-17 08:15:00,
2013-02-17 03:22:00,27.4,22.6,29.97,North,359,0.0,1.0,82,0.00,,,0.00,Wunderground v.1.15,2013-02-17 08:22:00,
2013-02-17 03:31:00,27.3,22.5,29.97,North,358,0.0,1.0,82,0.00,,,0.00,Wunderground v.1.15,2013-02-17 08:31:00,
2013-02-17 03:57:00,27.1,22.3,29.98,North,359,0.0,1.0,82,0.00,,,0.00,Wunderground v.1.15,2013-02-17 08:57:00,
2013-02-17 04:04:00,27.0,22.2,29.98,North,359,0.0,1.0,82,0.00,,,0.00,Wunderground v.1.15,2013-02-17 09:04:00,
2013-02-17 04:09:00,26.9,21.8,29.98,North,358,0.0,1.0,81,0.00,,,0.00,Wunderground v.1.15,2013-02-17 09:09:00,
2013-02-17 04:14:00,26.8,21.8,29.98,North,360,0.0,1.0,81,0.00,,,0.00,Wunderground v.1.15,2013-02-17 09:14:00,
2013-02-17 04:20:00,26.7,21.9,29.98,North,358,0.0,1.0,82,0.00,,,0.00,Wunderground v.1.15,2013-02-17 09:20:00,
2013-02-17 04:25:00,26.7,22.2,29.98,North,359,0.0,1.0,83,0.00,,,0.00,Wunderground v.1.15,2013-02-17 09:25:00,
2013-02-17 04:30:00,26.6,21.6,29.99,North,360,0.0,1.0,81,0.00,,,0.00,Wunderground v.1.15,2013-02-17 09:30:00,
2013-02-17 04:58:00,26.7,21.7,30.00,East,96,0.0,1.0,81,0.00,,,0.00,Wunderground v.1.15,2013-02-17 09:58:00,
2013-02-17 05:04:00,26.6,21.3,30.00,East,96,0.0,1.0,80,0.00,,,0.00,Wunderground v.1.15,2013-02-17 10:04:00,
2013-02-17 05:09:00,26.6,21.6,30.01,East,96,0.0,1.0,81,0.00,,,0.00,Wunderground v.1.15,2013-02-17 10:09:00,
2013-02-17 05:42:00,25.9,21.2,30.02,East,96,0.0,1.0,82,0.00,,,0.00,Wunderground v.1.15,2013-02-17 10:42:00,
2013-02-17 05:47:00,25.7,21.3,30.02,East,96,0.0,1.0,83,0.00,,,0.00,Wunderground v.1.15,2013-02-17 10:47:00,
2013-02-17 05:53:00,25.5,21.1,30.03,East,96,0.0,1.0,83,0.00,,,0.00,Wunderground v.1.15,2013-02-17 10:53:00,
2013-02-17 05:58:00,25.4,21.0,30.03,East,96,0.0,1.0,83,0.00,,,0.00,Wunderground v.1.15,2013-02-17 10:58:00,
2013-02-17 06:03:00,25.3,20.9,30.03,East,96,0.0,0.0,83,0.00,,,0.00,Wunderground v.1.15,2013-02-17 11:03:00,
2013-02-17 06:26:00,24.8,20.9,30.04,East,96,0.0,0.0,85,0.00,,,0.00,Wunderground v.1.15,2013-02-17 11:26:00,
2013-02-17 06:31:00,24.7,20.8,30.04,East,96,0.0,0.0,85,0.00,,,0.00,Wunderground v.1.15,2013-02-17 11:31:00,
2013-02-17 06:36:00,24.6,20.7,30.04,East,96,0.0,0.0,85,0.00,,,0.00,Wunderground v.1.15,2013-02-17 11:36:00,
2013-02-17 06:42:00,24.5,20.6,30.05,East,96,0.0,0.0,85,0.00,,,0.00,Wunderground v.1.15,2013-02-17 11:42:00,
2013-02-17 06:47:00,24.3,20.4,30.05,East,96,0.0,0.0,85,0.00,,,0.00,Wunderground v.1.15,2013-02-17 11:47:00,
2013-02-17 06:52:00,24.2,20.3,30.05,East,96,0.0,0.0,85,0.00,,,0.00,Wunderground v.1.15,2013-02-17 11:52:00,
2013-02-17 07:24:00,25.0,19.1,30.07,East,94,0.0,0.0,78,0.00,,,0.00,Wunderground v.1.15,2013-02-17 12:24:00,
2013-02-17 07:29:00,25.1,18.6,30.07,East,94,0.0,0.0,76,0.00,,,0.00,Wunderground v.1.15,2013-02-17 12:29:00,
2013-02-17 07:35:00,25.2,18.4,30.07,East,93,0.0,0.0,75,0.00,,,0.00,Wunderground v.1.15,2013-02-17 12:35:00,
2013-02-17 07:40:00,25.3,18.2,30.07,East,94,0.0,0.0,74,0.00,,,0.00,Wunderground v.1.15,2013-02-17 12:40:00,
2013-02-17 07:45:00,25.5,18.4,30.08,East,93,0.0,0.0,74,0.00,,,0.00,Wunderground v.1.15,2013-02-17 12:45:00,
2013-02-17 08:00:00,26.2,18.1,30.08,WSW,245,0.0,1.0,71,0.00,,,0.00,Wunderground v.1.15,2013-02-17 13:00:00,
2013-02-17 08:07:00,26.6,17.8,30.08,NE,49,0.0,2.0,69,0.00,,,0.00,Wunderground v.1.15,2013-02-17 13:07:00,
2013-02-17 08:12:00,26.9,17.0,30.08,North,354,0.0,1.0,66,0.00,,,0.00,Wunderground v.1.15,2013-02-17 13:12:00,
2013-02-17 08:17:00,27.1,16.9,30.09,East,90,0.0,1.0,65,0.00,,,0.00,Wunderground v.1.15,2013-02-17 13:17:00,
2013-02-17 08:23:00,27.5,16.5,30.09,NE,55,0.0,1.0,63,0.00,,,0.00,Wunderground v.1.15,2013-02-17 13:23:00,
2013-02-17 08:28:00,27.7,16.7,30.09,ENE,60,0.0,1.0,63,0.00,,,0.00,Wunderground v.1.15,2013-02-17 13:28:00,
2013-02-17 08:33:00,27.8,15.7,30.10,West,276,1.0,2.0,60,0.00,,,0.00,Wunderground v.1.15,2013-02-17 13:33:00,
2013-02-17 09:18:00,28.9,15.6,30.11,NNE,14,1.0,3.0,57,0.00,,,0.00,Wunderground v.1.15,2013-02-17 14:18:00,
2013-02-17 09:23:00,28.8,15.1,30.11,East,100,1.0,1.0,56,0.00,,,0.00,Wunderground v.1.15,2013-02-17 14:23:00,
2013-02-17 09:28:00,28.7,15.4,30.11,East,82,1.0,4.0,57,0.00,,,0.00,Wunderground v.1.15,2013-02-17 14:28:00,
2013-02-17 09:34:00,28.9,14.3,30.12,East,100,2.0,2.0,54,0.00,,,0.00,Wunderground v.1.15,2013-02-17 14:34:00,
2013-02-17 09:39:00,29.4,15.2,30.12,WSW,240,1.0,2.0,55,0.00,,,0.00,Wunderground v.1.15,2013-02-17 14:39:00,
2013-02-17 10:00:00,29.5,14.0,30.13,WNW,287,1.0,2.0,52,0.00,,,0.00,Wunderground v.1.15,2013-02-17 15:00:00,
2013-02-17 10:07:00,30.2,13.8,30.13,West,264,1.0,2.0,50,0.00,,,0.00,Wunderground v.1.15,2013-02-17 15:07:00,
2013-02-17 10:12:00,30.5,13.6,30.13,West,278,1.0,1.0,49,0.00,,,0.00,Wunderground v.1.15,2013-02-17 15:12:00,
2013-02-17 10:17:00,31.0,14.0,30.13,SE,139,1.0,2.0,49,0.00,,,0.00,Wunderground v.1.15,2013-02-17 15:17:00,
2013-02-17 10:23:00,31.2,13.8,30.13,WSW,241,1.0,2.0,48,0.00,,,0.00,Wunderground v.1.15,2013-02-17 15:23:00,
2013-02-17 10:28:00,31.4,13.5,30.13,West,280,1.0,2.0,47,0.00,,,0.00,Wunderground v.1.15,2013-02-17 15:28:00,
2013-02-17 10:33:00,31.6,13.7,30.14,West,262,1.0,1.0,47,0.00,,,0.00,Wunderground v.1.15,2013-02-17 15:33:00,
2013-02-17 10:40:00,32.2,13.2,30.14,West,279,1.0,1.0,45,0.00,,,0.00,Wunderground v.1.15,2013-02-17 15:40:00,
2013-02-17 11:18:00,32.7,12.6,30.14,East,100,1.0,4.0,43,0.00,,,0.00,Wunderground v.1.15,2013-02-17 16:18:00,
2013-02-17 11:23:00,32.9,14.4,30.14,East,98,1.0,1.0,46,0.00,,,0.00,Wunderground v.1.15,2013-02-17 16:23:00,
2013-02-17 11:28:00,33.6,14.5,30.14,East,80,1.0,3.0,45,0.00,,,0.00,Wunderground v.1.15,2013-02-17 16:28:00,
2013-02-17 11:34:00,34.1,14.4,30.14,ENE,75,1.0,1.0,44,0.00,,,0.00,Wunderground v.1.15,2013-02-17 16:34:00,
2013-02-17 11:39:00,33.9,11.5,30.14,ESE,122,1.0,6.0,39,0.00,,,0.00,Wunderground v.1.15,2013-02-17 16:39:00,
2013-02-17 11:44:00,33.7,11.9,30.14,ESE,105,1.0,2.0,40,0.00,,,0.00,Wunderground v.1.15,2013-02-17 16:44:00,
2013-02-17 11:51:00,34.2,14.0,30.14,ENE,70,1.0,2.0,43,0.00,,,0.00,Wunderground v.1.15,2013-02-17 16:51:00,
2013-02-17 12:00:00,35.1,13.2,30.14,West,281,1.0,1.0,40,0.00,,,0.00,Wunderground v.1.15,2013-02-17 17:00:00,
2013-02-17 12:20:00,35.5,13.0,30.13,East,101,1.0,1.0,39,0.00,,,0.00,Wunderground v.1.15,2013-02-17 17:20:00,
2013-02-17 12:27:00,35.5,12.4,30.13,WSW,240,1.0,3.0,38,0.00,,,0.00,Wunderground v.1.15,2013-02-17 17:27:00,
2013-02-17 12:32:00,35.2,13.8,30.13,ENE,64,1.0,3.0,41,0.00,,,0.00,Wunderground v.1.15,2013-02-17 17:32:00,
2013-02-17 12:37:00,35.1,12.0,30.13,East,85,2.0,3.0,38,0.00,,,0.00,Wunderground v.1.15,2013-02-17 17:37:00,
2013-02-17 12:43:00,34.9,13.0,30.13,East,80,2.0,2.0,40,0.00,,,0.00,Wunderground v.1.15,2013-02-17 17:43:00,
2013-02-17 12:48:00,35.2,13.3,30.13,ENE,68,2.0,2.0,40,0.00,,,0.00,Wunderground v.1.15,2013-02-17 17:48:00,
2013-02-17 12:53:00,35.5,13.5,30.13,ENE,67,2.0,2.0,40,0.00,,,0.00,Wunderground v.1.15,2013-02-17 17:53:00,
2013-02-17 12:59:00,35.9,13.3,30.13,East,91,1.0,3.0,39,0.00,,,0.00,Wunderground v.1.15,2013-02-17 17:59:00,
2013-02-17 13:04:00,36.2,14.2,30.13,SSW,198,1.0,3.0,40,0.00,,,0.00,Wunderground v.1.15,2013-02-17 18:04:00,
2013-02-17 13:10:00,36.7,13.4,30.12,SW,226,1.0,1.0,38,0.00,,,0.00,Wunderground v.1.15,2013-02-17 18:10:00,
2013-02-17 13:19:00,36.7,14.0,30.12,East,80,2.0,3.0,39,0.00,,,0.00,Wunderground v.1.15,2013-02-17 18:19:00,
2013-02-17 13:39:00,37.7,13.1,30.12,NE,53,1.0,2.0,36,0.00,,,0.00,Wunderground v.1.15,2013-02-17 18:39:00,
2013-02-17 13:44:00,37.8,12.6,30.12,ENE,62,1.0,2.0,35,0.00,,,0.00,Wunderground v.1.15,2013-02-17 18:44:00,
2013-02-17 13:50:00,37.8,12.6,30.11,ENE,58,1.0,2.0,35,0.00,,,0.00,Wunderground v.1.15,2013-02-17 18:50:00,
2013-02-17 14:03:00,38.7,14.6,30.11,East,92,1.0,2.0,37,0.00,,,0.00,Wunderground v.1.15,2013-02-17 19:03:00,
2013-02-17 14:08:00,39.3,15.2,30.11,WSW,253,1.0,2.0,37,0.00,,,0.00,Wunderground v.1.15,2013-02-17 19:08:00,
2013-02-17 14:14:00,39.6,13.5,30.11,ENE,67,1.0,3.0,34,0.00,,,0.00,Wunderground v.1.15,2013-02-17 19:14:00,
2013-02-17 14:25:00,39.0,13.0,30.11,NE,37,2.0,2.0,34,0.00,,,0.00,Wunderground v.1.15,2013-02-17 19:25:00,
2013-02-17 14:30:00,39.4,12.6,30.11,SSW,212,1.0,1.0,33,0.00,,,0.00,Wunderground v.1.15,2013-02-17 19:30:00,
2013-02-17 14:35:00,39.6,14.2,30.11,WNW,283,1.0,2.0,35,0.00,,,0.00,Wunderground v.1.15,2013-02-17 19:35:00,
2013-02-17 15:05:00,38.6,11.9,30.11,WSW,238,2.0,2.0,33,0.00,,,0.00,Wunderground v.1.15,2013-02-17 20:05:00,
2013-02-17 15:11:00,38.6,11.2,30.11,West,267,1.0,1.0,32,0.00,,,0.00,Wunderground v.1.15,2013-02-17 20:11:00,
2013-02-17 15:16:00,38.5,11.8,30.11,East,80,1.0,2.0,33,0.00,,,0.00,Wunderground v.1.15,2013-02-17 20:16:00,
2013-02-17 15:21:00,38.7,12.0,30.11,ENE,67,1.0,1.0,33,0.00,,,0.00,Wunderground v.1.15,2013-02-17 20:21:00,
2013-02-17 15:27:00,38.9,12.2,30.11,SE,127,1.0,2.0,33,0.00,,,0.00,Wunderground v.1.15,2013-02-17 20:27:00,
2013-02-17 15:32:00,38.4,11.1,30.11,NW,314,1.0,1.0,32,0.00,,,0.00,Wunderground v.1.15,2013-02-17 20:32:00,
2013-02-17 15:54:00,38.6,11.2,30.12,East,79,1.0,1.0,32,0.00,,,0.00,Wunderground v.1.15,2013-02-17 20:54:00,
2013-02-17 15:59:00,38.4,10.3,30.12,ENE,78,1.0,2.0,31,0.00,,,0.00,Wunderground v.1.15,2013-02-17 20:59:00,
2013-02-17 16:32:00,37.9,11.3,30.13,NNW,341,1.0,1.0,33,0.00,,,0.00,Wunderground v.1.15,2013-02-17 21:32:00,
2013-02-17 16:38:00,37.8,10.5,30.13,East,98,1.0,4.0,32,0.00,,,0.00,Wunderground v.1.15,2013-02-17 21:38:00,
2013-02-17 16:43:00,37.6,10.4,30.13,East,89,1.0,4.0,32,0.00,,,0.00,Wunderground v.1.15,2013-02-17 21:43:00,
2013-02-17 16:48:00,37.5,10.3,30.14,ENE,60,1.0,4.0,32,0.00,,,0.00,Wunderground v.1.15,2013-02-17 21:48:00,
2013-02-17 16:54:00,37.6,11.7,30.13,ENE,72,1.0,6.0,34,0.00,,,0.00,Wunderground v.1.15,2013-02-17 21:54:00,
2013-02-17 17:05:00,37.3,11.5,30.14,West,278,1.0,2.0,34,0.00,,,0.00,Wunderground v.1.15,2013-02-17 22:05:00,
2013-02-17 17:13:00,36.9,11.8,30.15,NE,51,0.0,0.0,35,0.00,,,0.00,Wunderground v.1.15,2013-02-17 22:13:00,
2013-02-17 17:18:00,36.7,12.2,30.15,West,264,0.0,0.0,36,0.00,,,0.00,Wunderground v.1.15,2013-02-17 22:18:00,
2013-02-17 17:24:00,36.7,10.9,30.15,West,273,1.0,1.0,34,0.00,,,0.00,Wunderground v.1.15,2013-02-17 22:24:00,
2013-02-17 17:29:00,36.6,10.2,30.15,West,271,1.0,1.0,33,0.00,,,0.00,Wunderground v.1.15,2013-02-17 22:29:00,
2013-02-17 17:37:00,36.4,11.9,30.15,WNW,284,1.0,1.0,36,0.00,,,0.00,Wunderground v.1.15,2013-02-17 22:37:00,
2013-02-17 19:22:00,30.1,13.7,30.19,North,6,0.0,0.0,50,0.00,,,0.00,Wunderground v.1.15,2013-02-18 00:22:00,
2013-02-17 19:48:00,28.9,14.3,30.20,North,6,0.0,0.0,54,0.00,,,0.00,Wunderground v.1.15,2013-02-18 00:48:00,
2013-02-17 20:01:00,28.6,15.3,30.21,North,6,0.0,0.0,57,0.00,,,0.00,Wunderground v.1.15,2013-02-18 01:01:00,
2013-02-17 20:36:00,28.5,15.6,30.22,North,6,0.0,0.0,58,0.00,,,0.00,Wunderground v.1.15,2013-02-18 01:36:00,